"read_dt","SO2 (ppb)","flags","PMT voltage (V)","lamp voltage (V)","lamp intensity (Hz)","internal temp (C)","react chamber temp (C)","sample flow (l/min)","pres (mmHg)","SO2 bkg (ppb)","SO2 coefficient"
2014-02-20 00:00:00,5615E-2,5C000490,-0724,1361,6880,020.0,045.0,0.132,764.2,01.16,0.508
2014-02-20 00:01:00,5629E-2,5C000490,-0724,1362,6944,020.0,045.0,0.131,764.2,01.16,0.508
2014-02-20 00:02:00,5565E-2,5C000490,-0724,1362,6921,020.0,045.0,0.131,764.2,01.16,0.508
2014-02-20 00:03:00,5563E-2,5C000490,-0724,1364,6892,020.1,045.0,0.131,764.2,01.16,0.508
2014-02-20 00:04:00,5943E-2,5C000490,-0724,1327,7608,020.1,045.0,0.131,764.2,01.16,0.508
2014-02-20 00:05:00,6348E-2,5C000490,-0724,1302,7613,020.0,045.1,0.131,764.2,01.16,0.508
2014-02-20 00:06:00,6326E-2,5C000490,-0724,1301,7606,020.1,045.0,0.131,764.2,01.16,0.508
2014-02-20 00:07:00,6305E-2,5C000490,-0724,1304,7492,020.1,045.0,0.131,764.2,01.16,0.508
2014-02-20 00:08:00,6339E-2,5C000490,-0724,1306,7519,020.1,045.0,0.131,764.2,01.16,0.508
2014-02-20 00:09:00,6276E-2,5C000490,-0724,1306,7509,020.1,045.0,0.131,764.2,01.16,0.508
2014-02-20 00:10:00,6315E-2,5C000490,-0724,1308,7508,020.1,045.1,0.131,764.2,01.16,0.508
2014-02-20 00:11:00,6279E-2,5C000490,-0724,1310,7269,020.1,045.1,0.131,764.1,01.16,0.508
2014-02-20 00:12:00,6235E-2,5C000490,-0724,1322,7323,020.1,045.1,0.131,764.1,01.16,0.508
2014-02-20 00:13:00,6208E-2,5C000490,-0724,1328,7226,020.1,045.1,0.131,764.1,01.16,0.508
2014-02-20 00:14:00,6302E-2,5C000490,-0724,1331,7248,020.1,045.0,0.131,764.1,01.16,0.508
2014-02-20 00:15:00,6221E-2,5C000490,-0724,1333,7175,020.1,045.0,0.131,764.1,01.16,0.508
2014-02-20 00:16:00,6239E-2,5C000490,-0724,1330,7262,020.1,045.0,0.131,764.0,01.16,0.508
2014-02-20 00:17:00,6257E-2,5C000490,-0724,1330,7273,020.0,045.1,0.131,764.1,01.16,0.508
2014-02-20 00:18:00,6249E-2,5C000490,-0724,1330,7276,020.1,045.1,0.131,764.1,01.16,0.508
2014-02-20 00:19:00,6239E-2,5C000490,-0724,1332,7326,020.1,045.1,0.131,764.0,01.16,0.508
2014-02-20 00:20:00,6153E-2,5C000490,-0724,1334,7171,020.1,045.0,0.131,764.0,01.16,0.508
2014-02-20 00:21:00,6251E-2,5C000490,-0724,1335,7139,020.1,045.1,0.131,764.1,01.16,0.508
2014-02-20 00:22:00,6223E-2,5C000490,-0724,1338,7126,020.0,045.1,0.131,764.1,01.16,0.508
2014-02-20 00:23:00,6190E-2,5C000490,-0724,1340,7145,019.7,045.0,0.131,764.0,01.16,0.508
2014-02-20 00:24:00,6220E-2,5C000490,-0724,1341,7243,019.5,045.0,0.131,764.2,01.16,0.508
2014-02-20 00:25:00,6237E-2,5C000490,-0724,1342,7308,019.3,045.0,0.132,764.2,01.16,0.508
2014-02-20 00:26:00,6170E-2,5C000490,-0724,1340,7059,019.2,045.0,0.132,764.2,01.16,0.508
2014-02-20 00:27:00,6273E-2,5C000490,-0724,1342,7154,019.1,045.0,0.132,764.2,01.16,0.508
2014-02-20 00:28:00,6211E-2,5C000490,-0724,1344,7090,018.9,045.0,0.133,764.3,01.16,0.508
2014-02-20 00:29:00,6256E-2,5C000490,-0724,1320,7508,018.8,045.0,0.133,764.3,01.16,0.508
2014-02-20 00:30:00,6335E-2,5C000490,-0724,1314,7491,018.8,045.0,0.134,764.2,01.16,0.508
2014-02-20 00:31:00,6352E-2,5C000490,-0724,1316,7354,018.6,045.0,0.134,764.2,01.16,0.508
2014-02-20 00:32:00,6419E-2,5C000490,-0724,1318,7416,018.6,045.0,0.135,764.3,01.16,0.508
2014-02-20 00:33:00,6389E-2,5C000490,-0724,1314,7397,018.5,045.0,0.135,764.2,01.16,0.508
2014-02-20 00:34:00,6417E-2,5C000490,-0724,1316,7481,018.4,045.0,0.136,764.2,01.16,0.508
2014-02-20 00:35:00,6398E-2,5C000490,-0724,1318,7459,018.3,045.0,0.136,764.2,01.16,0.508
2014-02-20 00:36:00,6260E-2,5C000490,-0724,1322,7303,018.3,045.0,0.136,764.2,01.16,0.508
2014-02-20 00:37:00,6305E-2,5C000490,-0724,1325,7357,018.2,045.0,0.137,764.1,01.16,0.508
2014-02-20 00:38:00,6322E-2,5C000490,-0724,1328,7275,018.2,045.0,0.137,764.2,01.16,0.508
2014-02-20 00:39:00,6301E-2,5C000490,-0724,1330,7252,018.1,045.0,0.137,764.2,01.16,0.508
2014-02-20 00:40:00,6341E-2,5C000490,-0724,1327,7399,018.1,045.0,0.137,764.1,01.16,0.508
2014-02-20 00:41:00,6382E-2,5C000490,-0724,1315,7504,018.1,045.0,0.138,764.1,01.16,0.508
2014-02-20 00:42:00,6317E-2,5C000490,-0724,1307,7573,018.0,045.1,0.138,764.2,01.16,0.508
2014-02-20 00:43:00,6329E-2,5C000490,-0724,1309,7515,018.0,045.0,0.138,764.1,01.16,0.508
2014-02-20 00:44:00,6376E-2,5C000490,-0724,1311,7436,018.0,045.0,0.138,764.1,01.16,0.508
2014-02-20 00:45:00,6342E-2,5C000490,-0724,1312,7424,017.9,045.0,0.138,764.1,01.16,0.508
2014-02-20 00:46:00,6381E-2,5C000490,-0724,1313,7480,017.9,045.0,0.139,764.1,01.16,0.508
2014-02-20 00:47:00,6419E-2,5C000490,-0724,1313,7400,017.8,045.0,0.139,764.0,01.16,0.508
2014-02-20 00:48:00,6339E-2,5C000490,-0724,1316,7446,017.9,045.0,0.139,764.1,01.16,0.508
2014-02-20 00:49:00,6356E-2,5C000490,-0724,1321,7305,017.8,045.0,0.139,764.1,01.16,0.508
2014-02-20 00:50:00,6325E-2,5C000490,-0724,1323,7286,017.8,045.0,0.139,764.1,01.16,0.508
2014-02-20 00:51:00,6323E-2,5C000490,-0724,1326,7242,017.8,045.0,0.139,764.1,01.16,0.508
2014-02-20 00:52:00,6346E-2,5C000490,-0724,1328,7341,017.7,045.0,0.139,764.1,01.16,0.508
2014-02-20 00:53:00,6314E-2,5C000490,-0724,1331,7260,017.8,045.0,0.139,764.2,01.16,0.508
2014-02-20 00:54:00,6333E-2,5C000490,-0724,1332,7313,017.8,045.0,0.139,764.1,01.16,0.508
2014-02-20 00:55:00,6330E-2,5C000490,-0724,1333,7227,017.7,045.0,0.140,764.1,01.16,0.508
2014-02-20 00:56:00,6287E-2,5C000490,-0724,1333,7281,017.7,045.0,0.140,764.1,01.16,0.508
2014-02-20 00:57:00,6346E-2,5C000490,-0724,1335,7285,017.7,045.0,0.140,764.1,01.16,0.508
2014-02-20 00:58:00,6314E-2,5C000490,-0724,1337,7089,017.7,045.0,0.140,764.2,01.16,0.508
2014-02-20 00:59:00,6260E-2,5C000490,-0724,1340,7192,017.7,045.0,0.140,764.1,01.16,0.508
2014-02-20 01:00:00,6339E-2,5C000490,-0724,1341,7240,017.6,045.0,0.140,764.0,01.16,0.508
2014-02-20 01:01:00,6285E-2,5C000490,-0724,1341,7150,017.6,045.0,0.140,764.1,01.16,0.508
2014-02-20 01:02:00,6318E-2,5C000490,-0724,1344,7037,017.6,045.0,0.140,764.1,01.16,0.508
2014-02-20 01:03:00,6291E-2,5C000490,-0724,1345,7157,017.5,045.0,0.140,764.1,01.16,0.508
2014-02-20 01:04:00,6291E-2,5C000490,-0724,1346,7023,017.5,045.0,0.140,764.1,01.16,0.508
2014-02-20 01:05:00,6314E-2,5C000490,-0724,1348,7094,017.5,045.0,0.140,764.2,01.16,0.508
2014-02-20 01:06:00,6332E-2,5C000490,-0724,1351,7064,017.5,045.0,0.141,764.1,01.16,0.508
2014-02-20 01:07:00,6317E-2,5C000490,-0724,1353,7053,017.5,045.0,0.141,764.1,01.16,0.508
2014-02-20 01:08:00,6221E-2,5C000490,-0724,1355,6970,017.4,045.0,0.141,764.1,01.16,0.508
2014-02-20 01:09:00,6205E-2,5C000400,-0724,1177,10665,017.4,045.0,0.141,764.1,01.16,0.508
2014-02-20 01:10:00,5610E-2,5C000410,-0724,1075,9760,017.4,045.0,0.141,764.1,01.16,0.508
2014-02-20 01:11:00,5525E-2,5C000410,-0724,1079,9709,017.5,045.0,0.141,764.0,01.16,0.508
2014-02-20 01:12:00,5574E-2,5C000410,-0724,1087,9673,017.5,045.0,0.141,764.1,01.16,0.508
2014-02-20 01:13:00,5519E-2,5C000410,-0724,1092,9601,017.4,045.0,0.141,764.0,01.16,0.508
2014-02-20 01:14:00,5572E-2,5C000410,-0724,1098,9490,017.5,045.0,0.141,764.0,01.16,0.508
2014-02-20 01:15:00,5590E-2,5C000410,-0724,1103,9441,017.5,045.0,0.141,764.0,01.16,0.508
2014-02-20 01:16:00,5585E-2,5C000410,-0724,1106,9507,017.4,045.0,0.141,764.1,01.16,0.508
2014-02-20 01:17:00,5663E-2,5C000410,-0724,1109,9492,017.5,045.0,0.141,764.1,01.16,0.508
2014-02-20 01:18:00,5689E-2,5C000410,-0724,1113,9305,017.5,045.0,0.141,764.0,01.16,0.508
2014-02-20 01:19:00,5729E-2,5C000410,-0724,1114,9328,017.5,045.0,0.141,764.0,01.16,0.508
2014-02-20 01:20:00,5683E-2,5C000410,-0724,1117,9341,017.5,045.0,0.141,764.0,01.16,0.508
2014-02-20 01:21:00,5654E-2,5C000410,-0724,1120,9349,017.4,045.0,0.141,764.0,01.16,0.508
2014-02-20 01:22:00,5700E-2,5C000410,-0724,1122,9224,017.4,045.0,0.141,764.0,01.16,0.508
2014-02-20 01:23:00,5706E-2,5C000410,-0724,1124,9225,017.5,045.0,0.141,764.0,01.16,0.508
2014-02-20 01:24:00,5692E-2,5C000410,-0724,1125,9305,017.5,045.0,0.141,764.0,01.16,0.508
2014-02-20 01:25:00,5710E-2,5C000410,-0724,1129,9166,017.5,045.0,0.141,763.9,01.16,0.508
2014-02-20 01:26:00,5719E-2,5C000410,-0724,1130,9212,017.5,045.0,0.141,763.9,01.16,0.508
2014-02-20 01:27:00,5763E-2,5C000410,-0724,1131,9246,017.5,045.0,0.141,763.9,01.16,0.508
2014-02-20 01:28:00,5698E-2,5C000410,-0724,1135,9165,017.5,045.0,0.141,763.9,01.16,0.508
2014-02-20 01:29:00,5780E-2,5C000410,-0724,1135,9296,017.5,045.0,0.141,764.0,01.16,0.508
2014-02-20 01:30:00,5756E-2,5C000410,-0724,1136,9128,017.5,045.0,0.141,764.0,01.16,0.508
2014-02-20 01:31:00,5778E-2,5C000410,-0724,1139,9091,017.6,045.0,0.141,763.8,01.16,0.508
2014-02-20 01:32:00,5769E-2,5C000410,-0724,1141,9203,017.6,045.0,0.141,763.9,01.16,0.508
2014-02-20 01:33:00,5755E-2,5C000410,-0724,1143,9068,017.6,045.0,0.141,763.9,01.16,0.508
2014-02-20 01:34:00,5766E-2,5C000410,-0724,1144,9120,017.6,045.0,0.141,763.9,01.16,0.508
2014-02-20 01:35:00,5820E-2,5C000410,-0724,1147,9094,017.6,045.0,0.141,763.9,01.16,0.508
2014-02-20 01:36:00,5762E-2,5C000410,-0724,1148,8953,017.6,045.0,0.141,763.9,01.16,0.508
2014-02-20 01:37:00,5788E-2,5C000410,-0724,1149,9052,017.6,045.0,0.141,763.9,01.16,0.508
2014-02-20 01:38:00,5842E-2,5C000410,-0724,1150,9083,017.6,045.0,0.141,763.9,01.16,0.508
2014-02-20 01:39:00,5774E-2,5C000410,-0724,1151,9040,017.6,045.0,0.141,763.8,01.16,0.508
2014-02-20 01:40:00,5748E-2,5C000410,-0724,1152,8958,017.6,045.0,0.141,763.8,01.16,0.508
2014-02-20 01:41:00,5788E-2,5C000410,-0724,1154,9024,017.6,045.0,0.141,763.8,01.16,0.508
2014-02-20 01:42:00,5769E-2,5C000410,-0724,1155,8967,017.6,045.0,0.140,763.8,01.16,0.508
2014-02-20 01:43:00,5820E-2,5C000410,-0724,1157,8884,017.6,045.0,0.141,763.8,01.16,0.508
2014-02-20 01:44:00,5781E-2,5C000410,-0724,1160,8937,017.6,045.0,0.141,763.8,01.16,0.508
2014-02-20 01:45:00,5898E-2,5C000410,-0724,1161,8931,017.6,045.0,0.141,763.8,01.16,0.508
2014-02-20 01:46:00,5855E-2,5C000410,-0724,1163,8867,017.6,045.0,0.141,763.8,01.16,0.508
2014-02-20 01:47:00,5847E-2,5C000410,-0724,1165,8872,017.6,045.0,0.140,763.7,01.16,0.508
2014-02-20 01:48:00,5915E-2,5C000410,-0724,1163,9010,017.6,045.0,0.140,763.7,01.16,0.508
2014-02-20 01:49:00,5863E-2,5C000410,-0724,1164,8908,017.6,045.0,0.140,763.7,01.16,0.508
2014-02-20 01:50:00,5824E-2,5C000410,-0724,1166,8807,017.6,045.0,0.141,763.6,01.16,0.508
2014-02-20 01:51:00,5892E-2,5C000410,-0724,1167,8740,017.6,045.0,0.140,763.7,01.16,0.508
2014-02-20 01:52:00,5885E-2,5C000410,-0724,1169,8821,017.7,045.0,0.141,763.7,01.16,0.508
2014-02-20 01:53:00,5882E-2,5C000410,-0724,1170,8893,017.7,045.0,0.140,763.7,01.16,0.508
2014-02-20 01:54:00,5892E-2,5C000410,-0724,1170,8866,017.7,045.0,0.141,763.6,01.16,0.508
2014-02-20 01:55:00,5941E-2,5C000410,-0724,1170,8839,017.7,045.0,0.140,763.7,01.16,0.508
2014-02-20 01:56:00,5868E-2,5C000410,-0724,1172,8804,017.7,045.0,0.140,763.5,01.16,0.508
2014-02-20 01:57:00,5932E-2,5C000410,-0724,1173,8797,017.7,045.0,0.140,763.5,01.16,0.508
2014-02-20 01:58:00,5865E-2,5C000410,-0724,1175,8779,017.7,045.0,0.140,763.6,01.16,0.508
2014-02-20 01:59:00,5886E-2,5C000410,-0724,1178,8760,017.7,045.0,0.140,763.5,01.16,0.508
2014-02-20 02:00:00,5915E-2,5C000410,-0724,1177,8803,017.8,045.0,0.140,763.5,01.16,0.508
2014-02-20 02:01:00,5944E-2,5C000410,-0724,1179,8696,017.8,045.0,0.140,763.5,01.16,0.508
2014-02-20 02:02:00,5977E-2,5C000410,-0724,1181,8669,017.8,045.0,0.140,763.5,01.16,0.508
2014-02-20 02:03:00,5957E-2,5C000410,-0724,1184,8668,017.8,045.0,0.140,763.5,01.16,0.508
2014-02-20 02:04:00,5968E-2,5C000410,-0724,1187,8750,017.8,045.0,0.140,763.5,01.16,0.508
2014-02-20 02:05:00,5959E-2,5C000410,-0724,1192,8608,017.8,045.0,0.140,763.3,01.16,0.508
2014-02-20 02:06:00,5921E-2,5C000410,-0724,1194,8653,017.9,045.0,0.140,763.4,01.16,0.508
2014-02-20 02:07:00,5936E-2,5C000410,-0724,1194,8623,017.9,045.0,0.140,763.5,01.16,0.508
2014-02-20 02:08:00,5906E-2,5C000410,-0724,1196,8613,017.9,045.0,0.140,763.4,01.16,0.508
2014-02-20 02:09:00,5902E-2,5C000410,-0724,1198,8521,017.9,045.0,0.140,763.4,01.16,0.508
2014-02-20 02:10:00,5948E-2,5C000410,-0724,1200,8554,017.9,045.0,0.140,763.3,01.16,0.508
2014-02-20 02:11:00,5904E-2,5C000410,-0724,1199,8562,017.9,045.0,0.140,763.4,01.16,0.508
2014-02-20 02:12:00,5927E-2,5C000410,-0724,1200,8565,017.9,045.0,0.140,763.3,01.16,0.508
2014-02-20 02:13:00,5920E-2,5C000490,-0724,1204,8441,017.9,045.0,0.140,763.3,01.16,0.508
2014-02-20 02:14:00,5894E-2,5C000490,-0724,1206,8515,018.0,045.0,0.139,763.3,01.16,0.508
2014-02-20 02:15:00,5938E-2,5C000490,-0724,1207,8444,018.1,045.0,0.000,763.2,01.16,0.508
2014-02-20 02:16:00,5918E-2,5C000490,-0724,1209,8384,018.1,045.0,0.000,763.2,01.16,0.508
2014-02-20 02:17:00,5924E-2,5C000490,-0724,1211,8462,018.2,045.0,0.000,763.1,01.16,0.508
2014-02-20 02:18:00,5900E-2,5C000490,-0724,1212,8440,018.3,045.0,0.000,763.2,01.16,0.508
2014-02-20 02:19:00,5895E-2,5C000490,-0724,1214,8353,018.3,045.0,0.000,763.3,01.16,0.508
2014-02-20 02:20:00,5902E-2,5C000490,-0724,1215,8431,018.3,045.0,0.000,763.2,01.16,0.508
2014-02-20 02:21:00,5898E-2,5C000490,-0724,1219,8370,018.3,045.0,0.000,763.1,01.16,0.508
2014-02-20 02:22:00,5864E-2,5C000490,-0724,1224,8342,018.4,045.0,0.000,763.0,01.16,0.508
2014-02-20 02:23:00,5837E-2,5C000490,-0724,1232,8146,018.4,045.0,0.000,763.0,01.16,0.508
2014-02-20 02:24:00,5872E-2,5C000490,-0724,1238,8157,018.5,045.0,0.000,763.0,01.16,0.508
2014-02-20 02:25:00,5876E-2,5C000490,-0724,1246,7957,018.5,045.0,0.000,763.0,01.16,0.508
2014-02-20 02:26:00,5811E-2,5C000490,-0724,1252,8021,018.6,045.0,0.000,763.0,01.16,0.508
2014-02-20 02:27:00,5869E-2,5C000490,-0724,1256,8017,018.7,045.0,0.000,762.9,01.16,0.508
2014-02-20 02:28:00,5842E-2,5C000490,-0724,1264,7923,018.8,045.1,0.000,762.8,01.16,0.508
2014-02-20 02:29:00,5871E-2,5C000490,-0724,1268,7738,019.0,045.0,0.000,762.8,01.16,0.508
2014-02-20 02:30:00,5854E-2,5C000490,-0724,1271,7823,019.0,045.0,0.000,762.8,01.16,0.508
2014-02-20 02:31:00,5811E-2,5C000490,-0724,1272,7734,019.1,045.0,0.000,762.8,01.16,0.508
2014-02-20 02:32:00,5878E-2,5C000490,-0724,1278,7830,019.2,045.1,0.000,762.8,01.16,0.508
2014-02-20 02:33:00,5814E-2,5C000490,-0724,1280,7779,019.3,045.1,0.000,762.8,01.16,0.508
2014-02-20 02:34:00,5848E-2,5C000490,-0724,1280,7767,019.4,045.1,0.000,762.7,01.16,0.508
2014-02-20 02:35:00,5828E-2,5C000490,-0724,1282,7744,019.4,045.0,0.000,762.8,01.16,0.508
2014-02-20 02:36:00,5749E-2,5C000490,-0724,1285,7737,019.5,045.1,0.000,762.8,01.16,0.508
2014-02-20 02:37:00,5746E-2,5C000490,-0724,1287,7653,019.6,045.1,0.000,762.8,01.16,0.508
2014-02-20 02:38:00,5798E-2,5C000490,-0724,1288,7668,019.6,045.0,0.000,762.7,01.16,0.508
2014-02-20 02:39:00,5741E-2,5C000490,-0724,1290,7533,019.7,045.1,0.134,762.7,01.16,0.508
2014-02-20 02:40:00,5781E-2,5C000490,-0724,1290,7543,019.7,045.0,0.134,762.7,01.16,0.508
2014-02-20 02:41:00,5823E-2,5C000490,-0724,1293,7634,019.8,045.1,0.134,762.8,01.16,0.508
2014-02-20 02:42:00,5823E-2,5C000490,-0724,1295,7612,019.8,045.1,0.134,762.9,01.16,0.508
2014-02-20 02:43:00,5807E-2,5C000490,-0724,1297,7602,019.9,045.1,0.133,762.9,01.16,0.508
2014-02-20 02:44:00,5807E-2,5C000490,-0724,1301,7567,019.9,045.0,0.133,762.7,01.16,0.508
2014-02-20 02:45:00,5744E-2,5C000490,-0724,1305,7591,020.0,045.0,0.133,762.7,01.16,0.508
2014-02-20 02:46:00,5762E-2,5C000490,-0724,1304,7472,020.0,045.0,0.133,762.8,01.16,0.508
2014-02-20 02:47:00,5775E-2,5C000490,-0724,1296,7763,020.1,045.1,0.132,762.8,01.16,0.508
2014-02-20 02:48:00,5727E-2,5C000490,-0724,1285,7711,020.1,045.0,0.132,762.9,01.16,0.508
2014-02-20 02:49:00,5773E-2,5C000490,-0724,1279,7734,020.1,045.0,0.132,762.9,01.16,0.508
2014-02-20 02:50:00,5775E-2,5C000490,-0724,1278,7850,020.2,045.1,0.132,762.8,01.16,0.508
2014-02-20 02:51:00,5820E-2,5C000490,-0724,1276,7837,020.2,045.1,0.132,762.8,01.16,0.508
2014-02-20 02:52:00,5807E-2,5C000490,-0724,1277,7718,020.3,045.0,0.131,762.9,01.16,0.508
2014-02-20 02:53:00,5772E-2,5C000490,-0724,1277,7831,020.3,045.1,0.131,762.7,01.16,0.508
2014-02-20 02:54:00,5840E-2,5C000490,-0724,1276,7801,020.3,045.1,0.131,762.2,01.16,0.508
2014-02-20 02:55:00,5781E-2,5C000490,-0724,1277,7798,020.3,045.1,0.131,761.8,01.16,0.508
2014-02-20 02:56:00,5800E-2,5C000490,-0724,1279,7708,020.4,045.1,0.131,761.5,01.16,0.508
2014-02-20 02:57:00,5810E-2,5C000490,-0724,1279,7769,020.4,045.1,0.131,761.2,01.16,0.508
2014-02-20 02:58:00,5817E-2,5C000490,-0724,1280,7763,020.4,045.1,0.131,760.9,01.16,0.508
2014-02-20 02:59:00,5817E-2,5C000490,-0724,1282,7647,020.4,045.1,0.131,762.2,01.16,0.508
2014-02-20 03:00:00,5758E-2,5C000490,-0724,1279,7748,020.4,045.1,0.130,762.0,01.16,0.508
2014-02-20 03:01:00,5822E-2,5C000490,-0724,1277,7840,020.5,045.1,0.130,761.7,01.16,0.508
2014-02-20 03:02:00,5797E-2,5C000490,-0724,1277,7773,020.5,045.1,0.130,761.4,01.16,0.508
2014-02-20 03:03:00,5783E-2,5C000490,-0724,1280,7684,020.5,045.0,0.130,761.3,01.16,0.508
2014-02-20 03:04:00,5738E-2,5C000490,-0724,1280,7865,020.5,045.1,0.130,761.2,01.16,0.508
2014-02-20 03:05:00,5835E-2,5C000490,-0724,1279,7732,020.5,045.1,0.130,761.1,01.16,0.508
2014-02-20 03:06:00,5825E-2,5C000490,-0724,1280,7808,020.5,045.1,0.130,761.0,01.16,0.508
2014-02-20 03:07:00,5774E-2,5C000490,-0724,1281,7687,020.5,045.1,0.130,761.2,01.16,0.508
2014-02-20 03:08:00,5746E-2,5C000490,-0724,1283,7713,020.5,045.1,0.130,762.2,01.16,0.508
2014-02-20 03:09:00,5688E-2,5C000490,-0724,1282,7819,020.5,045.1,0.130,762.1,01.16,0.508
2014-02-20 03:10:00,5746E-2,5C000490,-0724,1280,7857,020.5,045.0,0.130,761.9,01.16,0.508
2014-02-20 03:11:00,5765E-2,5C000490,-0724,1281,7654,020.5,045.1,0.130,761.8,01.16,0.508
2014-02-20 03:12:00,5781E-2,5C000490,-0724,1283,7759,020.6,045.1,0.130,761.7,01.16,0.508
2014-02-20 03:13:00,5721E-2,5C000490,-0724,1286,7672,020.6,045.1,0.130,761.6,01.16,0.508
2014-02-20 03:14:00,5704E-2,5C000490,-0724,1287,7686,020.6,045.1,0.130,761.4,01.16,0.508
2014-02-20 03:15:00,5768E-2,5C000490,-0724,1288,7650,020.6,045.1,0.130,761.3,01.16,0.508
2014-02-20 03:16:00,5724E-2,5C000490,-0724,1290,7644,020.6,045.1,0.130,761.1,01.16,0.508
2014-02-20 03:17:00,5791E-2,5C000490,-0724,1292,7547,020.6,045.1,0.130,761.1,01.16,0.508
2014-02-20 03:18:00,5769E-2,5C000490,-0724,1294,7714,020.6,045.1,0.130,761.1,01.16,0.508
2014-02-20 03:19:00,5779E-2,5C000490,-0724,1292,7677,020.6,045.1,0.130,761.0,01.16,0.508
2014-02-20 03:20:00,5721E-2,5C000490,-0724,1294,7685,020.6,045.1,0.130,760.9,01.16,0.508
2014-02-20 03:21:00,5733E-2,5C000490,-0724,1296,7512,020.6,045.0,0.130,760.9,01.16,0.508
2014-02-20 03:22:00,5686E-2,5C000490,-0724,1298,7587,020.6,045.1,0.130,760.8,01.16,0.508
2014-02-20 03:23:00,5727E-2,5C000490,-0724,1298,7638,020.6,045.1,0.130,760.8,01.16,0.508
2014-02-20 03:24:00,5750E-2,5C000490,-0724,1299,7587,020.6,045.1,0.130,760.9,01.16,0.508
2014-02-20 03:25:00,5704E-2,5C000490,-0724,1298,7564,020.6,045.1,0.130,760.8,01.16,0.508
2014-02-20 03:26:00,5704E-2,5C000490,-0724,1298,7600,020.6,045.1,0.130,760.7,01.16,0.508
2014-02-20 03:27:00,5651E-2,5C000490,-0724,1297,7514,020.6,045.1,0.130,760.8,01.16,0.508
2014-02-20 03:28:00,5738E-2,5C000490,-0724,1298,7546,020.6,045.1,0.130,760.8,01.16,0.508
2014-02-20 03:29:00,5705E-2,5C000490,-0724,1295,7673,020.6,045.1,0.130,760.8,01.16,0.508
2014-02-20 03:30:00,5693E-2,5C000490,-0724,1294,7648,020.6,045.1,0.130,760.8,01.16,0.508
2014-02-20 03:31:00,5648E-2,5C000490,-0724,1293,7689,020.5,045.1,0.130,760.7,01.16,0.508
2014-02-20 03:32:00,5663E-2,5C000490,-0724,1295,7652,020.6,045.1,0.130,760.7,01.16,0.508
2014-02-20 03:33:00,5631E-2,5C000490,-0724,1294,7616,020.6,045.0,0.130,760.7,01.16,0.508
2014-02-20 03:34:00,5713E-2,5C000490,-0724,1294,7662,020.6,045.1,0.130,760.7,01.16,0.508
2014-02-20 03:35:00,5656E-2,5C000490,-0724,1296,7625,020.6,045.1,0.130,760.7,01.16,0.508
2014-02-20 03:36:00,5658E-2,5C000490,-0724,1298,7560,020.5,045.0,0.130,760.6,01.16,0.508
2014-02-20 03:37:00,5610E-2,5C000490,-0724,1300,7619,020.6,045.1,0.130,760.7,01.16,0.508
2014-02-20 03:38:00,5690E-2,5C000490,-0724,1302,7552,020.5,045.1,0.130,760.7,01.16,0.508
2014-02-20 03:39:00,5700E-2,5C000490,-0724,1302,7541,020.5,045.1,0.130,760.6,01.16,0.508
2014-02-20 03:40:00,5651E-2,5C000490,-0724,1302,7543,020.5,045.1,0.130,760.6,01.16,0.508
2014-02-20 03:41:00,5632E-2,5C000490,-0724,1304,7556,020.5,045.1,0.130,760.7,01.16,0.508
2014-02-20 03:42:00,5633E-2,5C000490,-0724,1305,7523,020.5,045.1,0.130,760.5,01.16,0.508
2014-02-20 03:43:00,5605E-2,5C000490,-0724,1306,7467,020.5,045.1,0.130,760.5,01.16,0.508
2014-02-20 03:44:00,5694E-2,5C000490,-0724,1307,7515,020.5,045.1,0.130,760.5,01.16,0.508
2014-02-20 03:45:00,5680E-2,5C000490,-0724,1307,7482,020.5,045.1,0.130,760.5,01.16,0.508
2014-02-20 03:46:00,5691E-2,5C000490,-0724,1307,7579,020.5,045.1,0.130,760.5,01.16,0.508
2014-02-20 03:47:00,5608E-2,5C000490,-0724,1308,7499,020.5,045.1,0.130,760.6,01.16,0.508
2014-02-20 03:48:00,5668E-2,5C000490,-0724,1308,7513,020.5,045.1,0.130,760.6,01.16,0.508
2014-02-20 03:49:00,5648E-2,5C000490,-0724,1310,7513,020.5,045.1,0.130,760.5,01.16,0.508
2014-02-20 03:50:00,5686E-2,5C000490,-0724,1310,7483,020.5,045.0,0.130,760.5,01.16,0.508
2014-02-20 03:51:00,5651E-2,5C000490,-0724,1311,7480,020.5,045.1,0.130,760.5,01.16,0.508
2014-02-20 03:52:00,5659E-2,5C000490,-0724,1314,7469,020.5,045.1,0.130,760.5,01.16,0.508
2014-02-20 03:53:00,5633E-2,5C000490,-0724,1316,7401,020.5,045.1,0.130,760.6,01.16,0.508
2014-02-20 03:54:00,5657E-2,5C000490,-0724,1318,7302,020.5,045.1,0.130,760.5,01.16,0.508
2014-02-20 03:55:00,5593E-2,5C000490,-0724,1320,7378,020.5,045.0,0.130,760.5,01.16,0.508
2014-02-20 03:56:00,5624E-2,5C000490,-0724,1322,7411,020.5,045.1,0.130,760.5,01.16,0.508
2014-02-20 03:57:00,5649E-2,5C000490,-0724,1323,7326,020.5,045.1,0.130,760.5,01.16,0.508
2014-02-20 03:58:00,5579E-2,5C000490,-0724,1323,7351,020.5,045.1,0.130,760.5,01.16,0.508
2014-02-20 03:59:00,5633E-2,5C000490,-0724,1326,7263,020.5,045.1,0.130,760.5,01.16,0.508
2014-02-20 04:00:00,5591E-2,5C000490,-0724,1328,7330,020.5,045.1,0.130,760.6,01.16,0.508
2014-02-20 04:01:00,5611E-2,5C000490,-0724,1329,7272,020.6,045.1,0.130,760.5,01.16,0.508
2014-02-20 04:02:00,5610E-2,5C000490,-0724,1330,7196,020.5,045.1,0.130,760.5,01.16,0.508
2014-02-20 04:03:00,5569E-2,5C000490,-0724,1332,7314,020.6,045.1,0.130,760.5,01.16,0.508
2014-02-20 04:04:00,5484E-2,5C000490,-0724,1333,7167,020.5,045.0,0.130,760.4,01.16,0.508
2014-02-20 04:05:00,5672E-2,5C000490,-0724,1333,7238,020.6,045.1,0.130,760.5,01.16,0.508
2014-02-20 04:06:00,5594E-2,5C000490,-0724,1333,7284,020.6,045.1,0.130,760.5,01.16,0.508
2014-02-20 04:07:00,5544E-2,5C000490,-0724,1333,7204,020.6,045.1,0.130,760.5,01.16,0.508
2014-02-20 04:08:00,5545E-2,5C000490,-0724,1335,7205,020.6,045.1,0.130,760.5,01.16,0.508
2014-02-20 04:09:00,5590E-2,5C000490,-0724,1337,7119,020.6,045.1,0.130,760.5,01.16,0.508
2014-02-20 04:10:00,5594E-2,5C000490,-0724,1339,7148,020.6,045.1,0.130,760.4,01.16,0.508
2014-02-20 04:11:00,5527E-2,5C000490,-0724,1339,7194,020.6,045.0,0.130,760.4,01.16,0.508
2014-02-20 04:12:00,5601E-2,5C000490,-0724,1339,7174,020.6,045.1,0.130,760.5,01.16,0.508
2014-02-20 04:13:00,5587E-2,5C000490,-0724,1339,7212,020.6,045.1,0.130,760.5,01.16,0.508
2014-02-20 04:14:00,5616E-2,5C000490,-0724,1340,7166,020.6,045.1,0.130,760.5,01.16,0.508
2014-02-20 04:15:00,5560E-2,5C000490,-0724,1343,7164,020.6,045.1,0.130,760.4,01.16,0.508
2014-02-20 04:16:00,5567E-2,5C000490,-0724,1343,7147,020.6,045.1,0.130,760.4,01.16,0.508
2014-02-20 04:17:00,5558E-2,5C000490,-0724,1344,7111,020.6,045.1,0.130,760.5,01.16,0.508
2014-02-20 04:18:00,5548E-2,5C000490,-0724,1346,7071,020.6,045.1,0.130,760.4,01.16,0.508
2014-02-20 04:19:00,5536E-2,5C000490,-0724,1340,7240,020.6,045.1,0.130,760.5,01.16,0.508
2014-02-20 04:20:00,5474E-2,5C000490,-0724,1339,7308,020.6,045.1,0.130,760.4,01.16,0.508
2014-02-20 04:21:00,5469E-2,5C000490,-0724,1334,7201,020.6,045.1,0.130,760.5,01.16,0.508
2014-02-20 04:22:00,5466E-2,5C000490,-0724,1335,7149,020.6,045.1,0.130,760.5,01.16,0.508
2014-02-20 04:23:00,5448E-2,5C000490,-0724,1337,7208,020.6,045.1,0.130,760.5,01.16,0.508